Location: *
(48.8667°N, 2.3331°E)
Time: 00:45:03
(UTC+00:00)

Cosmos 1741 Rocket - Pass Details

Date: 09 April 2020
Orbit: 762 x 782 km, 74.0° (Epoch: 30 May)

Event Time Altitude Azimuth Distance (km) Brightness Sun altitude
Exits shadow 21:21:09 17° 215° (SW) 1,914 5.9 -24.2°
Maximum altitude 21:25:19 67° 296° (WNW) 847 4.3 -24.7°
Drops below altitude 10° 21:30:38 10° 19° (NNE) 2,347 6.9 -25.2°
Sets 21:33:03 0° 22° (NNE) 3,278 7.6 -25.5°
